Home   Weather   Porta Westfalica   Past weeks

Flag for Germany Past Weather in Porta Westfalica, North Rhine-Westphalia, Germany — Yesterday and Last 2 Weeks

Now
57 °F

Passing clouds.


Feels Like: 55 °F
Forecast: 51 / 63 °F
Wind: 9 mph from Southwest

Location: Bueckeburg

Current Time: Sep 30, 2016 at 7:00:29 AM

Latest Report: Sep 30, 2016 at 5:20 AM


Visibility: N/A

Pressure: 29.89 "Hg

Humidity: 94%

Dew Point: 55 °F

Location of Porta WestfalicaLocation

Past Weather in Porta Westfalica — Graph

°F

Porta Westfalica Temperature Yesterday

Maximum temperature yesterday: 73 °F (at 1:20 PM)
Minimum temperature yesterday: 57 °F (at 11:01 PM)
Average temperature yesterday: 67 °F

High & Low Weather Summary for the Past Weeks

 TemperatureHumidityPressure
High82 °F (Sep 15, 4:20 PM)100% (Sep 17, 12:20 PM)30.30 "Hg (Sep 17, 12:20 PM)
Low46 °F (Sep 19, 5:20 AM)34% (Sep 15, 6:20 PM)29.83 "Hg (Sep 29, 9:20 PM)
Average62 °F70%30.09 "Hg
* Reported Sep 15 5:20 AM — Sep 30 5:20 AM, Porta Westfalica, Weather by CustomWeather, © 2016

Note: Actual official high and low records may vary slightly from our data, if they occured in-between our weather recording intervals... More about our weather records

Advertising

Porta Westfalica Weather History for the Previous 24 Hours

Scroll right to see more
 ConditionsComfort  
Time TempWeatherWind HumidityBarometerVisibility
5:20 AM
Fri, Sep 30
57 °FPassing clouds.9 mph94%29.89 "HgN/A
4:20 AM59 °FPassing clouds.9 mph88%29.89 "HgN/A
3:20 AM59 °FPassing clouds.9 mph88%29.89 "HgN/A
2:20 AM59 °FPassing clouds.9 mph88%29.89 "HgN/A
1:20 AM59 °FPassing clouds.13 mph88%29.89 "HgN/A
12:20 AM59 °FPassing clouds.10 mph82%29.89 "HgN/A
11:20 PM
Thu, Sep 29
59 °FLight rain. Passing clouds.17 mph88%29.89 "Hg4 mi
11:01 PM57 °FRain. Passing clouds.10 mph94%29.89 "Hg4 mi
10:20 PM61 °FLight rain. Passing clouds.17 mph83%29.89 "Hg4 mi
9:20 PM68 °FPassing clouds.20 mph64%29.83 "HgN/A
8:20 PM68 °FPassing clouds.17 mph64%29.86 "HgN/A
7:20 PM70 °FPassing clouds.20 mph57%29.86 "HgN/A
6:20 PM72 °FScattered clouds.20 mph53%29.86 "HgN/A
5:20 PM72 °FScattered clouds.23 mph53%29.86 "HgN/A
4:20 PM73 °FPassing clouds.21 mph50%29.86 "HgN/A
3:20 PM73 °FPassing clouds.20 mph47%29.89 "HgN/A
2:20 PM73 °FScattered clouds.20 mph50%29.89 "HgN/A
1:20 PM73 °FPartly sunny.20 mph50%29.89 "HgN/A
12:20 PM70 °FPartly sunny.18 mph60%29.92 "HgN/A
11:20 AM68 °FPartly sunny.20 mph60%29.98 "HgN/A
10:20 AM66 °FPartly sunny.22 mph64%29.98 "HgN/A
9:20 AM66 °FBroken clouds.16 mph64%30.01 "HgN/A
8:20 AM64 °FBroken clouds.17 mph68%30.01 "HgN/A
7:20 AM66 °FPassing clouds.16 mph60%30.04 "HgN/A
Weather by CustomWeather, © 2016

See weather overviewHow to use our weather pages